Weather History for Rome, GA

Change the Weather History Date:

Saturday, February 2, 2013

  Actual Average Record
Temperature  
Mean Temperature 30 °F 42 °F  
Max Temperature 41 °F 53 °F 71 °F (2003)
Min Temperature 19 °F 31 °F 19 °F (2013)
Degree Days  
Heating Degree Days 35 23  
Month to date heating degree days 46  
Since 1 July heating degree days 2088  
Moisture  
Dew Point 26 °F    
Average Humidity 85    
Maximum Humidity 100    
Minimum Humidity 41    
Precipitation  
Precipitation 0.24 in 0.18 in 0.61 in (1998)
Month to date precipitation 0.36  
Year to date precipitation 5.18  
Snow  
Snow 0.00 in - - ()
Month to date snowfall  
Since 1 July snowfall  
Snow Depth -    
Sea Level Pressure  
Sea Level Pressure 30.23 in    
Wind  
Wind Speed 1 mph (SSW)    
Max Wind Speed 7 mph    
Max Gust Speed -    
Visibility 6 miles    
Events Fog , Rain    
T = Trace of Precipitation, MM = Missing Value Source: NWS Daily Summary

Daily Weather History Graph

Daily Weather History Graph

Search for Another Location

Airport:

Trip Planner

Search our weather history database for the weather conditions in past years. The results will help you decide how hot, cold, wet, or windy it might be!

Date:

Astronomy

Feb. 02, 2013 Rise Set
Actual Time 7:37 AM EST 6:11 PM EST
Civil Twilight 7:11 AM EST 6:38 PM EST
Nautical Twilight 6:41 AM EST 7:08 PM EST
Astronomical Twilight 6:11 AM EST 7:37 PM EST
Moon No Moon Rise 11:07 AM EST (2/2)
Length of Visible Light 11h 27m
Length of Day
10h 34m
Waning Gibbous, 60% of the Moon is Illuminated
Feb 2
Waning Gibbous
Feb 3
Last Quarter
Feb 10
New
Feb 17
First Quarter
Feb 25
Full

Hourly Weather History & Observations

Time (EST) Temp. Windchill Dew Point Humidity Pressure Visibility Wind Dir Wind Speed Gust Speed Precip Events Conditions
12:53 AM 23.0 °F - 19.0 °F 85% 30.37 in 10.0 mi Calm Calm - N/A   Clear
1:53 AM 23.0 °F - 18.0 °F 81% 30.36 in 10.0 mi Calm Calm - N/A   Clear
2:53 AM 21.9 °F - 18.0 °F 85% 30.36 in 10.0 mi Calm Calm - N/A   Clear
3:53 AM 21.9 °F - 19.0 °F 89% 30.36 in 10.0 mi Calm Calm - N/A   Clear
4:53 AM 21.0 °F - 18.0 °F 88% 30.35 in 10.0 mi Calm Calm - N/A   Clear
5:53 AM 19.9 °F - 18.0 °F 92% 30.34 in 10.0 mi Calm Calm - N/A   Clear
6:53 AM 21.0 °F - 18.0 °F 88% 30.35 in 10.0 mi Calm Calm - N/A   Clear
7:53 AM 19.9 °F - 17.1 °F 89% 30.35 in 10.0 mi Calm Calm - N/A   Clear
8:53 AM 27.0 °F - 21.0 °F 78% 30.33 in 10.0 mi Calm Calm - N/A   Clear
9:53 AM 32.0 °F - 23.0 °F 69% 30.34 in 10.0 mi Calm Calm - N/A   Clear
10:53 AM 33.1 °F 26.9 °F 19.0 °F 56% 30.38 in 10.0 mi NNW 6.9 mph - N/A   Overcast
11:53 AM 35.1 °F - 21.0 °F 57% 30.31 in 9.0 mi Calm Calm - 0.00 in   Overcast
12:53 PM 36.0 °F 31.1 °F 21.0 °F 55% 30.25 in 10.0 mi SE 5.8 mph - N/A   Overcast
1:53 PM 37.9 °F - 19.9 °F 48% 30.20 in 10.0 mi Calm Calm - 0.00 in   Overcast
2:53 PM 39.9 °F 35.1 °F 23.0 °F 51% 30.17 in 10.0 mi NNW 6.9 mph - 0.00 in   Overcast
3:53 PM 37.0 °F 32.4 °F 28.0 °F 70% 30.16 in 9.0 mi NNW 5.8 mph - 0.01 in Rain Light Rain
4:53 PM 35.1 °F - 32.0 °F 89% 30.16 in 5.0 mi Calm Calm - 0.09 in Rain Light Rain
5:32 PM 33.8 °F 30.8 °F 33.8 °F 100% 30.16 in 2.5 mi South 3.5 mph - 0.06 in Rain Light Rain
5:41 PM 35.6 °F - 33.8 °F 93% 30.17 in 4.0 mi Calm Calm - 0.08 in Rain Light Rain
5:49 PM 35.6 °F - 33.8 °F 93% 30.17 in 4.0 mi Calm Calm - 0.08 in Rain Light Rain
5:53 PM 35.1 °F - 34.0 °F 96% 30.17 in 4.0 mi Calm Calm - 0.09 in Rain Light Rain
6:05 PM 35.6 °F 30.7 °F 33.8 °F 93% 30.15 in 3.0 mi South 5.8 mph - 0.01 in Rain Light Rain
6:53 PM 36.0 °F 32.1 °F 35.1 °F 97% 30.16 in 10.0 mi Variable 4.6 mph - 0.03 in   Overcast
7:53 PM 35.1 °F - 34.0 °F 96% 30.15 in 8.0 mi Calm Calm - N/A   Partly Cloudy
8:53 PM 32.0 °F - 30.9 °F 96% 30.15 in 2.0 mi Calm Calm - N/A   Clear
9:49 PM 30.2 °F 26.7 °F 30.2 °F 100% 30.15 in 2.5 mi South 3.5 mph - N/A   Mostly Cloudy
9:53 PM 30.9 °F 27.5 °F 30.0 °F 96% 30.16 in 3.0 mi South 3.5 mph - N/A   Mostly Cloudy
10:23 PM 30.2 °F - 30.2 °F 100% 30.16 in 2.5 mi Calm Calm - N/A   Scattered Clouds
10:35 PM 30.2 °F - 30.2 °F 100% 30.15 in 1.8 mi Calm Calm - N/A   Partly Cloudy
10:53 PM 30.9 °F 27.5 °F 30.0 °F 96% 30.16 in 2.5 mi SSW 3.5 mph - N/A   Clear
11:01 PM 32.0 °F - 32.0 °F 100% 30.15 in 3.0 mi Calm Calm - N/A   Clear
11:24 PM 30.2 °F - 30.2 °F 100% 30.15 in 1.8 mi Calm Calm - N/A   Clear
11:28 PM 28.4 °F - 28.4 °F 100% 30.15 in 0.8 mi Calm Calm - N/A   Mist
11:44 PM 28.4 °F - 28.4 °F 100% 30.14 in 1.0 mi Calm Calm - N/A   Mist
11:51 PM 30.2 °F - 28.4 °F 93% 30.15 in 0.5 mi Calm Calm - N/A Fog Light Freezing Fog
11:53 PM 28.9 °F - 28.9 °F 100% 30.16 in 0.5 mi Calm Calm - N/A Fog Light Freezing Fog